This demonstration page uses our WeatherBlox Daily Observations layout. Learn more.

Left ArrowRight Arrow

39.01783, -85.05884

Hourly Observations for July 22, 2018

Temp ( °F °C ) Dew Point ( °F °C ) Humidity (%) Winds ( mph kmh ) Pressure ( in mb ) Visibility ( mi km ) Precip ( " mm )
12:22 am 00:22 Cloudy 70 21.1 69 20.6 97 97 WSW 6 9 29.68 1005 10 16 0.00 0.03
12:52 am 00:52 Cloudy with Light Rain 70 21.1 69 20.6 97 97 WSW 3 6 29.67 1005 5 8 0.00 0.03
1:36 am 01:36 Cloudy with Rain 70 21.1 69 20.6 97 97 WSW 7 11 29.65 1004 4 6 0.07 1.78
1:49 am 01:49 Cloudy with Rain 70 21 70 21 100 100 W 6 9 29.65 1004 2 3 0.12 3.05
1:52 am 01:52 Cloudy with Light Rain 70 21.1 69 20.6 97 97 WSW 8 13 29.65 1004 2 3 0.12 3.05
2:23 am 02:23 Cloudy with Mist and Fog 69 20.6 69 20.6 100 100 W 5 7 29.65 1004 3 5 0.01 0.25
2:52 am 02:52 Cloudy with Light Rain 69 20.6 69 20.6 100 100 W 5 7 29.64 1004 4 6 0.01 0.25
3:10 am 03:10 Cloudy with Light Rain 69 20.6 69 20.6 100 100 NW 5 7 29.62 1003 1 2 0.02 0.51
3:52 am 03:52 Cloudy 70 21.1 70 21.1 100 100 NW 8 13 29.63 1003 8 13 0.03 0.76
4:22 am 04:22 Cloudy 70 21.1 69 20.6 97 97 VRB 5 7 29.62 1003 10 16 0.00 0.00
4:50 am 04:50 Cloudy with Heavy Rain 70 21 70 21 100 100 NW 7 11 29.62 1003 2 3 0.05 1.27
4:52 am 04:52 Cloudy with Light Rain 70 21.1 69 20.6 97 97 NNW 7 11 29.63 1003 2 3 0.05 1.27
5:00 am 05:00 Cloudy with Light Rain 70 21.1 70 21.1 100 100 NNW 6 9 29.62 1003 4 6 0.00 0.03
5:52 am 05:52 Cloudy 69 20.6 69 20.6 100 100 NNW 9 15 29.63 1004 8 13 0.02 0.51
6:26 am 06:26 Cloudy with Mist and Fog 69 20.6 69 20.6 100 100 NNW 10 17 29.65 1004 4 6 0.00 0.00
6:40 am 06:40 Cloudy with Light Rain 69 20.6 68 20 96 96 N 10 17 29.65 1004 4 6 0.00 0.03
6:52 am 06:52 Cloudy with Light Rain 69 20.6 69 20.6 100 100 N 9 15 29.65 1004 2 3 0.01 0.25
7:52 am 07:52 Cloudy with Light Rain 69 20.6 69 20.6 100 100 N 8 13 29.66 1005 5 8 0.02 0.51
8:52 am 08:52 Cloudy 69 20.6 68 20 96 96 N 8 13 29.68 1005 7 11 0.01 0.25
9:52 am 09:52 Cloudy 70 21.1 68 20 93 93 NNE 10 17 29.69 1006 8 13 0.00 0.00
10:52 am 10:52 Cloudy 71 21.7 69 20.6 94 94 N 8 13 29.70 1006 7 11 0.00 0.03
11:33 am 11:33 Cloudy 72 22.2 68 20 87 87 NNE 9 15 29.71 1006 10 16 0.00 0.00
11:52 am 11:52 Cloudy with Light Rain 71 21.7 68 20 90 90 N 9 15 29.71 1006 8 13 0.00 0.03
12:52 pm 12:52 Cloudy 74 23.3 69 20.6 85 85 N 10 17 29.72 1006 10 16 0.00 0.03
1:52 pm 13:52 Cloudy 76 24.4 68 20 77 77 NE 9 15 29.71 1006 10 16 0.00 0.00
2:52 pm 14:52 Mostly Cloudy 77 25 67 19.4 71 71 N 5 7 29.70 1006 10 16 0.00 0.00
3:52 pm 15:52 Mostly Cloudy 78 25.6 67 19.4 69 69 NE 10 17 29.70 1006 10 16 0.00 0.00
4:52 pm 16:52 Mostly Cloudy 79 26.1 67 19.4 67 67 NE 17 28 29.70 1006 10 16 0.00 0.00
5:52 pm 17:52 Partly Cloudy 80 26.7 67 19.4 64 64 NE 14 22 29.70 1006 10 16 0.00 0.00
6:52 pm 18:52 Partly Cloudy 81 27.2 65 18.3 58 58 NE 14 22 29.71 1006 10 16 0.00 0.00
7:52 pm 19:52 Partly Cloudy 79 26.1 65 18.3 62 62 NE 15 24 29.73 1007 10 16 0.00 0.00
8:52 pm 20:52 Mostly Cloudy 77 25 65 18.3 66 66 N 14 22 29.76 1008 10 16 0.00 0.00
9:52 pm 21:52 Partly Cloudy 74 23.3 66 18.9 76 76 N 13 20 29.78 1009 10 16 0.00 0.00
10:52 pm 22:52 Mostly Clear 72 22.2 63 17.2 73 73 N 10 17 29.80 1009 10 16 0.00 0.00
11:52 pm 23:52 Partly Cloudy 70 21.1 64 17.8 82 82 N 8 13 29.81 1010 10 16 0.00 0.00

Powered by AerisWeather